Regional Weather Roundup
Issued by NWS

Home | Current Version | Previous Version | Text Only | Print | Product List | Glossary Off
Versions: 1 2 3 4 5 6 7 8 9 10 11 12 13 14 15 16 17 18 19 20 21 22 23 24 25 26 27

000
ASUS45 KPSR 170510
RWRAZ

ARIZONA HOURLY REGIONAL WEATHER ROUNDUP
NATIONAL WEATHER SERVICE PHOENIX AZ
1000 PM MST WED AUG 16 2017

NOTE: FAIR INDICATES FEW OR NO CLOUDS BELOW 12,000 FEET WITH NO
SIGNIFICANT WEATHER AND/OR OBSTRUCTIONS TO VISIBILITY.

AZZ001>003-036-170600-
NORTHWEST ARIZONA

CITY           SKY/WX    TMP DP  RH WIND       PRES   REMARKS
BULLHEAD CITY  CLEAR     91  34  13 N3        29.81R
KINGMAN        CLEAR     74  37  26 S9        30.02R
$$

AZZ004>008-015-016-018-170600-
NORTH CENTRAL ARIZONA

CITY           SKY/WX    TMP DP  RH WIND       PRES   REMARKS
GRAND CANYON   CLEAR     53  36  52 CALM      30.26R
WILLIAMS       CLEAR     55  43  62 S8        30.27R
PRESCOTT       CLEAR     66  44  45 SW7       30.15R
FLAGSTAFF      CLEAR     54  42  64 CALM      30.30R
PAYSON           N/A     70  36  28 CALM      30.17S
PAGE           CLEAR     80  31  16 S7        30.03R
$$

AZZ009>014-017-170600-
NORTHEAST ARIZONA

CITY           SKY/WX    TMP DP  RH WIND       PRES   REMARKS
WINSLOW        CLEAR     71  37  28 SW10      30.13R
SAINT JOHNS    CLEAR     69  38  32 SW10      30.19R
WINDOW ROCK    CLEAR     59  34  39 S3        30.26R
SHOW LOW       CLEAR     59  36  41 S9        30.26S
$$

AZZ540-542>544-546-548-170600-
GREATER PHOENIX AREA

CITY           SKY/WX    TMP DP  RH WIND       PRES   REMARKS
PHOENIX        CLEAR     93  48  21 SW5       29.83R
BUCKEYE        CLEAR     84  36  17 NW5       29.84R
LUKE AFB       CLEAR     89  55  31 W5        29.83R
DEER VALLEY    CLEAR     89  43  20 NE6       29.86R
SCOTTSDALE     CLEAR     90  43  19 N3        29.87R
MESA-GATEWAY   CLEAR     82  46  28 VRB5      29.87R
$$

AZZ539-553-170600-
SOUTHWEST MARICOPA COUNTY AND PINAL COUNTY

CITY           SKY/WX    TMP DP  RH WIND       PRES   REMARKS
CASA GRANDE    CLEAR     84  45  25 S8        29.88R
GILA BEND      CLEAR     86  23  10 S7        29.82R
$$

AZZ503-504-507>509-170600-
SOUTHEAST ARIZONA

CITY           SKY/WX    TMP DP  RH WIND       PRES   REMARKS
TUCSON         CLEAR     84  46  26 SW5       29.99R
DAVIS-MONTHAN  CLEAR     81  48  31 CALM      29.98R
NOGALES        CLEAR     71  50  47 NW5       30.09R
SIERRA VISTA   CLEAR     76  44  31 SW12      30.15R
DOUGLAS        CLEAR     75  51  43 CALM      30.11R
SAFFORD        CLEAR     78  44  29 N7        29.99R
$$

AZZ532-170600-
SOUTHWEST ARIZONA

CITY           SKY/WX    TMP DP  RH WIND       PRES   REMARKS
YUMA           CLEAR     90  44  20 SW9       29.80R
$$

CAZ041-043-047-048-061-525>527-560>570-170600-
SOUTHERN CALIFORNIA

CITY           SKY/WX    TMP DP  RH WIND       PRES   REMARKS
DOWNTOWN L.A.  CLEAR     68  60  75 VRB3      29.95R
L.A. AIRPORT   CLEAR     67  62  84 W10       29.96R
SAN DIEGO      PTCLDY    68  60  75 NW7       29.99R
BURBANK        CLEAR     68  57  68 S5        29.96R
ONTARIO        CLEAR     69  59  70 W12       29.96R
RIVERSIDE      CLEAR     69  60  73 W3        29.97R
PALM SPRINGS   CLEAR     87  53  31 W17G29    29.82R
EL CENTRO NAS  CLEAR     88  46  23 W13       29.79R
IMPERIAL       CLEAR     87  53  31 W14       29.77R
BLYTHE         CLEAR     91  33  12 SW7       29.79R
NEEDLES        CLEAR     92  34  13 W8        29.81R
$$

NVZ020-UTZ003-170600-
SOUTHERN NEVADA-UTAH

CITY           SKY/WX    TMP DP  RH WIND       PRES   REMARKS
LAS VEGAS      PTCLDY    90  37  15 S3        29.90R
SALT LAKE CITY PTCLDY    76  40  27 S7        30.04R
$$

NMZ009-TXZ055-170600-
NEW MEXICO-WEST TEXAS

CITY           SKY/WX    TMP DP  RH WIND       PRES   REMARKS
ALBUQUERQUE    PTCLDY    76  39  26 S7        30.14R
EL PASO        PTCLDY    84  51  31 CALM      30.05R
$$


........................KEY........................
SKY/WX - SKY CONDITION/WEATHER
TMP    - TEMPERATURE IN FAHRENHEIT
DP     - DEW POINT IN FAHRENHEIT
RH     - RELATIVE HUMIDITY IN PERCENT
WIND   - DIRECTION AND SPEED IN MILES PER HOUR (MPH)
VRB    - VARIABLE WIND DIRECTION
PRES   - MEAN SEA LEVEL PRESSURE IN INCHES OF MERCURY
         F - FALLING PRESSURE   R - RISING PRESSURE
         S - STEADY PRESSURE
VSB    - VISIBILITY IN MILES
HX     - HEAT INDEX IN FAHRENHEIT
WCI    - WIND CHILL INDEX IN FAHRENHEIT
TC     - TEMPERATURE IN CELSIUS WHICH IS ALSO KNOWN AS
         TEMPERATURE IN CENTIGRADE
AFB    - AIR FORCE BASE
         LUKE AFB IS LUKE AIR FORCE BASE
         DAVIS-MONTHAN IS DAVIS-MONTHAN AIR FORCE BASE
NAS    - NAVAL AIR STATION
         EL CENTRO NAS IS EL CENTRO NAVAL AIR STATION
N/A    - NOT AVAILABLE





USA.gov is the U.S. government's official web portal to all federal, state and local government web resources and services.